Weather in Roshchino

Russia / Stavropol Krai     44°08′56″N   45°12′12″E
temp.,
°C
wind,
m/s
gust,
m/s
humid.,
%
clouds,
%
prec.,
mm/h
press.,
hPa
HPBL,
m
25 may, wed
wed2500:00+13w5879100 0.0 1014234
03:00+12w6984100 0.1 1015364
06:00+12wnw5780100 0.0 1017336
09:00+16wnw4466100 0.1 1018941
12:00+19wnw445160 0.8 10181655
15:00+19nnw454892 0.9 10181621
18:00+19nw234697 0.0 10191028
21:00+16wnw1152100 0.0 102113
26 may, thu
thu2600:00+13wnw33625 0.0 102135
03:00+12w34715 0.0 102163
06:00+13w35705 0.0 1022156
09:00+19wnw445094 0.0 10221068
12:00+21wnw4537100 0.0 10212534
15:00+22wsw453625 0.0 10202013
18:00+21wsw34421 0.0 1020284
21:00+16wnw22533 0.0 102013
27 may, fri
fri2700:00+15e2255100 0.0 102021
03:00+14ssw1158100 0.0 101910
06:00+16wsw236098 0.0 102086
09:00+20sw224637 0.0 1019652
12:00+24sw33375 0.0 10181736
15:00+26w35347 0.0 10172236
18:00+24wnw35423 0.0 1017334
21:00+19nw34575 0.0 101953
28 may, sat
sat2800:00+17nnw346793 0.0 101959
03:00+18nne016392 0.0 101811
06:00+18ne11630 0.0 101991
09:00+23e23490 0.0 1018990
12:00+27e45370 0.0 10161880
15:00+28e66334 0.0 10152226
18:00+25ese710380 0.0 1015658
21:00+19e49540 0.0 1017197
29 may, sun
sun2900:00+16e410690 0.0 1016258
03:00+15e49750 0.0 1015268
06:00+16ese59710 0.0 1015349
09:00+22ese57493 0.0 1015754
12:00+27ese66355 0.0 10151170
15:00+29ese55345 0.0 10141451
18:00+26e57340 0.0 1015351
21:00+20e4949100 0.0 1016172